Sigfox identifier Datetime Temperature Humidity SNR
002EF75A 2019-04-23 14:55:24 21.6 29 19.1
002EF75A 2019-04-23 14:20:05 21.6 29 18.8
002EF75A 2019-04-23 13:44:46 21.5 29 19
002EF75A 2019-04-23 13:09:26 21.4 29 19.1
002EF75A 2019-04-23 12:34:06 21.4 28 19.1
002EF75A 2019-04-23 11:58:46 21.4 28 19.4
002EF75A 2019-04-23 11:23:28 21.4 28 19.6
002EF75A 2019-04-23 10:12:47 21.2 28 19.2
002EF75A 2019-04-23 09:37:28 21.2 28 19.5
002EF75A 2019-04-23 09:02:09 21.2 27 19.5
002EF75A 2019-04-23 08:26:50 21.1 27 19.6
002EF75A 2019-04-23 07:51:34 21 27 19.9
002EF75A 2019-04-23 07:16:15 21 27 20.2
002EF75A 2019-04-23 06:40:58 21.1 27 20.3
002EF75A 2019-04-23 06:05:41 21.1 27 20.4
002EF75A 2019-04-23 05:30:24 21.1 27 20.5
002EF75A 2019-04-23 04:55:06 21.1 27 20.4
002EF75A 2019-04-23 04:19:47 21.1 27 20.6
002EF75A 2019-04-23 03:44:29 21 27 20.3
002EF75A 2019-04-23 03:09:12 21.1 27 20.2
002EF75A 2019-04-23 02:33:54 21.1 27 20
002EF75A 2019-04-23 01:58:36 21.1 27 20.1
002EF75A 2019-04-23 01:23:18 21.1 27 19.9
002EF75A 2019-04-23 00:47:58 21.1 27 19.7
002EF75A 2019-04-23 00:12:39 21.1 27 19.5
002EF75A 2019-04-22 23:37:20 21.1 27 19.5
002EF75A 2019-04-22 23:02:01 21.1 27 19.3
002EF75A 2019-04-22 22:26:42 21.1 27 19.2
002EF75A 2019-04-22 21:51:22 21.1 27 19.1
002EF75A 2019-04-22 21:16:02 21 27 18.9
002EF75A 2019-04-22 20:40:45 21 27 19
002EF75A 2019-04-22 20:05:25 21 27 19.1
002EF75A 2019-04-22 19:30:05 21 27 19
002EF75A 2019-04-22 18:54:48 21 27 18.9
002EF75A 2019-04-22 18:19:30 21 27 19.1
002EF75A 2019-04-22 17:44:13 21 27 19.6
002EF75A 2019-04-22 17:08:55 21 27 19.3
002EF75A 2019-04-22 16:33:38 21 27 18.9
002EF75A 2019-04-22 15:58:20 21 27 18.7
002EF75A 2019-04-22 15:23:03 21 27 18.6
002EF75A 2019-04-22 14:47:45 21 27 18.4
002EF75A 2019-04-22 14:12:27 21.1 27 18.5
002EF75A 2019-04-22 13:37:10 21.1 27 18.2
002EF75A 2019-04-22 13:01:52 21 27 20.2
002EF75A 2019-04-22 12:26:35 21.1 27 20.2
002EF75A 2019-04-22 11:51:17 21.2 26 20.2
002EF75A 2019-04-22 11:15:59 21.2 26 20.7
002EF75A 2019-04-22 10:40:40 21.2 26 20.7
002EF75A 2019-04-22 10:05:21 21.2 26 21.1
002EF75A 2019-04-22 09:30:02 21.2 26 21.1
002EF75A 2019-04-22 08:54:43 21.2 26 21.2
002EF75A 2019-04-22 08:19:23 21.2 26 21.2
002EF75A 2019-04-22 07:44:04 21.2 26 21.2
002EF75A 2019-04-22 07:08:43 21.2 26 21.4
002EF75A 2019-04-22 06:33:22 21.2 26 21.4
002EF75A 2019-04-22 05:58:00 21.2 26 21.4
002EF75A 2019-04-22 05:22:37 21.2 26 21.3
002EF75A 2019-04-22 04:47:15 21.2 26 21.4
002EF75A 2019-04-22 04:11:54 21.2 26 21.4
002EF75A 2019-04-22 03:36:32 21.2 26 21.3
002EF75A 2019-04-22 03:01:10 21.2 26 20.9
002EF75A 2019-04-22 02:25:48 21.2 26 20.9
002EF75A 2019-04-22 01:50:27 21.3 26 20.9
002EF75A 2019-04-22 01:15:05 21.3 26 20.9
002EF75A 2019-04-22 00:39:43 21.3 26 20.8
002EF75A 2019-04-22 00:04:22 21.4 26 20.9
002EF75A 2019-04-21 23:29:00 21.4 26 21.1
002EF75A 2019-04-21 22:53:41 21.4 26 21.2
002EF75A 2019-04-21 22:18:18 21.4 26 19.7
002EF75A 2019-04-21 21:42:57 21.4 26 19.9
002EF75A 2019-04-21 21:07:36 21.4 26 20
002EF75A 2019-04-21 20:32:18 21.4 26 19.5
002EF75A 2019-04-21 19:56:55 21.4 26 18.8
002EF75A 2019-04-21 19:21:33 21.4 26 19
002EF75A 2019-04-21 18:46:12 21.2 26 18.9
002EF75A 2019-04-21 18:10:51 21.2 26 18.9
002EF75A 2019-04-21 17:35:29 21.2 26 18.9
002EF75A 2019-04-21 17:00:07 21.2 26 18.4
002EF75A 2019-04-21 16:24:46 21.2 26 18.2
002EF75A 2019-04-21 15:49:25 21.2 26 18
002EF75A 2019-04-21 15:14:05 21.2 26 18.2
002EF75A 2019-04-21 14:38:45 21 26 17.8
002EF75A 2019-04-21 14:03:25 21 26 18.2
002EF75A 2019-04-21 13:28:05 21 26 18.5
002EF75A 2019-04-21 12:52:44 21 26 18.6
002EF75A 2019-04-21 12:17:25 21 26 18.9
002EF75A 2019-04-21 11:42:05 21 26 18.9
002EF75A 2019-04-21 11:06:45 21 26 18.9
002EF75A 2019-04-21 10:31:24 21 26 19.3
002EF75A 2019-04-21 09:56:05 21 26 19.2
002EF75A 2019-04-21 09:20:44 21 26 18.9
002EF75A 2019-04-21 08:45:24 21 26 19.1
002EF75A 2019-04-21 08:10:04 21 26 19.1
002EF75A 2019-04-21 07:34:43 21 26 19.2
002EF75A 2019-04-21 06:59:22 21 26 19.1
002EF75A 2019-04-21 06:24:01 21.1 25 19
002EF75A 2019-04-21 05:48:41 21.1 25 19.1
002EF75A 2019-04-21 05:13:23 21.2 25 19.1
002EF75A 2019-04-21 04:38:02 21.2 25 19
002EF75A 2019-04-21 04:02:42 21.2 25 19
002EF75A 2019-04-21 03:27:22 21.2 25 19.2
002EF75A 2019-04-21 02:52:03 21.2 25 19.6
002EF75A 2019-04-21 02:16:43 21.2 25 19.9
002EF75A 2019-04-21 01:41:28 21.2 25 20.3
002EF75A 2019-04-21 01:06:03 21.2 25 20.3
002EF75A 2019-04-21 00:30:42 21.2 25 20.6
002EF75A 2019-04-20 23:55:22 21.2 25 20.8
002EF75A 2019-04-20 23:20:02 21.2 25 20.8
002EF75A 2019-04-20 22:44:42 21.2 25 21
002EF75A 2019-04-20 22:09:21 21.2 25 20.9
002EF75A 2019-04-20 21:34:02 21.2 25 21.1
002EF75A 2019-04-20 20:58:43 21.2 25 21.2
002EF75A 2019-04-20 20:23:24 21.2 25 21.3
002EF75A 2019-04-20 19:48:06 21.2 24 21.1
002EF75A 2019-04-20 19:12:47 21.2 24 21.2
002EF75A 2019-04-20 18:37:28 21.2 24 21.4
002EF75A 2019-04-20 18:02:08 21.2 24 21.5
002EF75A 2019-04-20 17:26:47 21.2 24 21.5
002EF75A 2019-04-20 16:51:27 21.2 24 21.3
002EF75A 2019-04-20 16:16:07 21.2 24 21.4
002EF75A 2019-04-20 15:40:48 21.2 24 21.4
002EF75A 2019-04-20 15:05:27 21.2 24 21.4
002EF75A 2019-04-20 14:30:07 21.2 24 21.5
002EF75A 2019-04-20 13:54:46 21.1 24 21.4
002EF75A 2019-04-20 13:19:25 21.1 24 21.6
002EF75A 2019-04-20 12:44:03 21.1 24 21.5
002EF75A 2019-04-20 12:08:42 21 24 21.4
002EF75A 2019-04-20 11:33:21 21 24 21.4
002EF75A 2019-04-20 10:58:02 21 24 21.2
002EF75A 2019-04-20 10:22:41 21 24 21.2
002EF75A 2019-04-20 09:47:21 21 24 22.1
002EF75A 2019-04-20 09:12:01 21 24 22
002EF75A 2019-04-20 08:36:41 21 23 21.8
002EF75A 2019-04-20 08:01:21 21 23 21.8
002EF75A 2019-04-20 07:26:01 21 23 21.9
002EF75A 2019-04-20 06:50:41 21 23 21.7
002EF75A 2019-04-20 06:15:21 21 23 21.7
002EF75A 2019-04-20 05:40:01 21 23 22
002EF75A 2019-04-20 05:04:40 21 23 22
002EF75A 2019-04-20 04:29:23 21 23 21.8
002EF75A 2019-04-20 03:54:01 21 23 21.8
002EF75A 2019-04-20 03:18:42 21 23 22.5
002EF75A 2019-04-20 02:43:22 21 23 22.5
002EF75A 2019-04-20 02:08:05 21 23 22.6
002EF75A 2019-04-20 01:32:44 21 23 22.6
002EF75A 2019-04-20 00:57:25 21 23 22.8
002EF75A 2019-04-20 00:22:08 20.9 23 22.8
002EF75A 2019-04-19 23:46:46 20.9 23 22.9
002EF75A 2019-04-19 23:11:28 20.9 23 22.8
002EF75A 2019-04-19 22:36:09 20.9 23 22.7
002EF75A 2019-04-19 22:00:48 21 23 22.8
002EF75A 2019-04-19 21:25:27 21 23 22.8
002EF75A 2019-04-19 20:50:07 21 23 22.7
002EF75A 2019-04-19 20:14:46 20.9 23 22.7
002EF75A 2019-04-19 19:39:25 20.8 23 22.6
002EF75A 2019-04-19 19:04:04 20.8 23 21.7
002EF75A 2019-04-19 18:28:43 20.7 23 21.8
002EF75A 2019-04-19 17:53:23 20.7 23 21.8
002EF75A 2019-04-19 17:18:03 20.8 23 21.7
002EF75A 2019-04-19 16:42:45 20.7 23 21.5
002EF75A 2019-04-19 16:07:26 20.9 24 21.4
002EF75A 2019-04-19 15:32:08 20.9 24 21.5
002EF75A 2019-04-19 14:56:51 20.9 24 21.1
002EF75A 2019-04-19 14:21:32 20.9 24 21.3
002EF75A 2019-04-19 13:46:13 20.9 24 21.5
002EF75A 2019-04-19 13:10:55 21 24 21.3
002EF75A 2019-04-19 12:35:35 21 24 20
002EF75A 2019-04-19 12:00:18 21 24 20.2
002EF75A 2019-04-19 11:25:00 21 24 20.2
002EF75A 2019-04-19 10:49:42 21 25 20.3
002EF75A 2019-04-19 10:14:25 21 25 20.1
002EF75A 2019-04-19 09:39:07 21.1 25 20.2
002EF75A 2019-04-19 09:03:50 21.1 25 20.6
002EF75A 2019-04-19 08:28:32 21.2 25 20.8
002EF75A 2019-04-19 07:53:15 21.2 25 20.9
002EF75A 2019-04-19 07:17:57 21.2 25 20.7
002EF75A 2019-04-19 06:42:39 21.2 25 20.4
002EF75A 2019-04-19 06:07:21 21.2 25 20.5
002EF75A 2019-04-19 05:32:03 21.2 25 20.7
002EF75A 2019-04-19 04:56:45 21.2 25 20.7
002EF75A 2019-04-19 04:21:29 21.2 25 21.8
002EF75A 2019-04-19 03:46:09 21.2 25 22.7
002EF75A 2019-04-19 03:10:52 21.2 25 23.5
002EF75A 2019-04-19 02:35:34 21.2 25 23.6
002EF75A 2019-04-19 02:00:16 21.2 25 23.8
002EF75A 2019-04-19 01:24:57 21.3 25 24
002EF75A 2019-04-19 00:49:38 21.2 25 24.1
002EF75A 2019-04-19 00:14:20 21.2 26 24.2
002EF75A 2019-04-18 23:38:59 21.2 26 24.3
002EF75A 2019-04-18 23:03:41 21.2 26 24.3
002EF75A 2019-04-18 22:28:20 21.2 25 24.5
002EF75A 2019-04-18 21:53:01 21.2 25 24.5
002EF75A 2019-04-18 21:17:42 21.2 25 24.6
002EF75A 2019-04-18 20:42:25 21.2 25 24.6
002EF75A 2019-04-18 20:07:06 21.2 25 24.7
002EF75A 2019-04-18 19:31:47 21.4 25 24.8
002EF75A 2019-04-18 18:56:27 21.4 26 24.7
002EF75A 2019-04-18 18:21:08 21.4 26 24.7
002EF75A 2019-04-18 17:45:48 21.4 26 24.8
002EF75A 2019-04-18 17:10:28 21.4 26 25
002EF75A 2019-04-18 16:35:08 21.6 26 25.1
002EF75A 2019-04-18 15:59:48 21.6 25 25.2
002EF75A 2019-04-18 15:24:28 21.6 26 25.3
002EF75A 2019-04-18 14:49:10 21.6 26 25.4
002EF75A 2019-04-18 14:13:50 21.8 26 25.6
002EF75A 2019-04-18 13:38:28 21.8 26 25.2
002EF75A 2019-04-18 13:03:08 22 26 24.9
002EF75A 2019-04-18 12:27:47 22.2 25 24.9
002EF75A 2019-04-18 11:52:27 22.5 21 24.9
002EF75A 2019-04-18 11:17:06 22.2 21 24.8
002EF75A 2019-04-18 10:41:46 22.2 22 24.9
002EF75A 2019-04-18 10:06:25 22.2 22 24.9
002EF75A 2019-04-18 09:31:03 22.2 22 24.9
002EF75A 2019-04-18 08:55:43 22.2 21 25.2
002EF75A 2019-04-18 08:20:22 22.2 21 25.4
002EF75A 2019-04-18 07:45:01 22.2 21 25.3
002EF75A 2019-04-18 07:09:41 22.2 21 25.3
002EF75A 2019-04-18 06:34:20 22.2 22 25.3
002EF75A 2019-04-18 05:58:59 22.2 22 25.3
002EF75A 2019-04-18 05:23:39 22.2 22 25.2
002EF75A 2019-04-18 04:48:19 22.2 22 25.5
002EF75A 2019-04-18 04:12:57 22.2 22 25.9
002EF75A 2019-04-18 03:37:36 22.2 22 25.9
002EF75A 2019-04-18 03:02:15 22.3 22 26
002EF75A 2019-04-18 02:26:54 22.4 22 25.9
002EF75A 2019-04-18 01:51:32 22.4 22 25.9
002EF75A 2019-04-18 01:16:13 22.4 22 25.9
002EF75A 2019-04-18 00:40:51 22.5 22 25.8
002EF75A 2019-04-18 00:05:31 22.5 22 25.8
002EF75A 2019-04-17 23:30:11 22.5 23 26
002EF75A 2019-04-17 22:54:50 22.5 23 26.1
002EF75A 2019-04-17 22:19:30 22.6 22 26
002EF75A 2019-04-17 21:44:09 22.7 22 25.8
002EF75A 2019-04-17 21:08:48 22.7 22 26.1
002EF75A 2019-04-17 20:33:26 22.8 22 26.2
002EF75A 2019-04-17 19:58:06 22.9 22 26
002EF75A 2019-04-17 19:22:44 22.9 22 26
002EF75A 2019-04-17 18:47:23 22.9 22 25.9
002EF75A 2019-04-17 18:12:02 22.9 21 25.7
002EF75A 2019-04-17 17:36:40 23.1 21 25.7
002EF75A 2019-04-17 17:01:19 23.1 21 25.6
002EF75A 2019-04-17 16:25:57 23.1 22 25.7
002EF75A 2019-04-17 15:50:38 23.1 22 25.7
002EF75A 2019-04-17 15:15:17 23 23 25.8
002EF75A 2019-04-17 14:39:56 22.9 23 25.8
002EF75A 2019-04-17 14:04:35 22.9 23 25.5
002EF75A 2019-04-17 13:29:14 22.7 23 25
002EF75A 2019-04-17 12:53:54 22.7 23 24.9
002EF75A 2019-04-17 12:18:34 22.5 23 25
002EF75A 2019-04-17 11:43:14 22.5 22 24.9
002EF75A 2019-04-17 11:07:55 22.2 22 24.9
002EF75A 2019-04-17 10:32:35 22.2 21 24.9
002EF75A 2019-04-17 09:57:17 22.2 21 24.9
002EF75A 2019-04-17 09:21:58 22.2 22 24.9
002EF75A 2019-04-17 08:46:39 22.1 21 24.5
002EF75A 2019-04-17 08:11:20 22.1 20 24.9
002EF75A 2019-04-17 07:36:00 22.1 20 24.9
002EF75A 2019-04-17 07:00:42 22.1 20 24.7
002EF75A 2019-04-17 06:25:22 22.1 20 24.2
002EF75A 2019-04-17 05:50:04 22 20 24.1
002EF75A 2019-04-17 05:14:45 22.1 20 24.2
002EF75A 2019-04-17 04:39:28 22.1 20 24.2
002EF75A 2019-04-17 04:04:10 22.2 20 24.2
002EF75A 2019-04-17 03:28:51 22.2 20 24.1
002EF75A 2019-04-17 02:53:32 22.2 20 23.9
002EF75A 2019-04-17 02:18:14 22.2 20 23.9
002EF75A 2019-04-17 01:42:55 22.2 20 24
002EF75A 2019-04-17 01:07:35 22.2 20 24
002EF75A 2019-04-17 00:32:15 22.2 20 24
002EF75A 2019-04-16 23:56:56 22.2 20 23.8
002EF75A 2019-04-16 23:21:36 22.3 20 23.9
002EF75A 2019-04-16 22:46:18 22.3 20 24.1
002EF75A 2019-04-16 22:10:58 22.5 20 24.1
002EF75A 2019-04-16 21:35:39 22.5 20 24
002EF75A 2019-04-16 21:00:19 22.5 20 24
002EF75A 2019-04-16 20:24:58 22.5 20 24.1
002EF75A 2019-04-16 19:49:36 22.5 19 24.1
002EF75A 2019-04-16 19:14:15 22.5 19 24.2
002EF75A 2019-04-16 18:38:54 22.5 19 24.2
002EF75A 2019-04-16 18:03:33 22.7 19 24.1
002EF75A 2019-04-16 17:28:12 22.7 18 23.8
002EF75A 2019-04-16 16:52:52 22.9 19 23.9
002EF75A 2019-04-16 16:17:31 22.9 19 23.8
002EF75A 2019-04-16 15:42:10 22.9 19 23.9
002EF75A 2019-04-16 15:06:50 22.8 19 23.9
002EF75A 2019-04-16 14:31:30 22.7 19 23.9
002EF75A 2019-04-16 13:56:10 22.7 19 24
002EF75A 2019-04-16 13:20:51 22.6 19 24.5
002EF75A 2019-04-16 12:45:31 22.5 18 24.6
002EF75A 2019-04-16 12:10:12 22.4 18 24.7
002EF75A 2019-04-16 11:34:52 22.2 18 24.6
002EF75A 2019-04-16 10:59:32 22.2 18 24.6
002EF75A 2019-04-16 10:24:12 22.1 18 24.6
002EF75A 2019-04-16 09:48:51 22.1 18 24.6
002EF75A 2019-04-16 09:13:30 22 18 24.6
002EF75A 2019-04-16 08:38:10 22 18 24.9
002EF75A 2019-04-16 08:02:49 22 18 24.8
002EF75A 2019-04-16 07:27:29 22 18 24.7
002EF75A 2019-04-16 06:52:09 22 18 24.7
002EF75A 2019-04-16 06:16:49 22 18 24.7
002EF75A 2019-04-16 05:41:28 22 17 25.1
002EF75A 2019-04-16 05:06:08 22 17 25.1
002EF75A 2019-04-16 04:30:48 22 17 25.1
002EF75A 2019-04-16 03:55:27 22.1 17 25
002EF75A 2019-04-16 03:20:06 22 17 25
002EF75A 2019-04-16 02:44:47 22.1 17 24.9
002EF75A 2019-04-16 02:09:28 22.1 17 24.9
002EF75A 2019-04-16 01:34:07 22.1 17 24.9
002EF75A 2019-04-16 00:58:46 22.2 17 24.8
002EF75A 2019-04-16 00:23:26 22.2 17 24.8
002EF75A 2019-04-15 23:48:05 22.2 17 24.9
002EF75A 2019-04-15 23:12:45 22.2 17 24.8
002EF75A 2019-04-15 22:37:27 22.2 17 24.3
002EF75A 2019-04-15 22:02:07 22.2 17 24.4
002EF75A 2019-04-15 21:26:47 22.4 17 24.5
002EF75A 2019-04-15 20:51:29 22.5 17 24.4
002EF75A 2019-04-15 20:16:09 22.5 16 24.5
002EF75A 2019-04-15 19:40:51 22.5 16 25
002EF75A 2019-04-15 19:05:31 22.5 16 25.1
002EF75A 2019-04-15 18:30:12 22.5 15 25.2
002EF75A 2019-04-15 17:54:53 22.7 15 24.9
002EF75A 2019-04-15 17:19:33 22.7 15 25.4
002EF75A 2019-04-15 16:44:14 22.7 15 25.4
002EF75A 2019-04-15 16:08:54 22.8 16 25.5
002EF75A 2019-04-15 15:33:35 22.8 16 25.5
002EF75A 2019-04-15 14:58:16 22.7 16 25.2
002EF75A 2019-04-15 14:22:58 22.7 16 25.2
002EF75A 2019-04-15 13:47:40 22.6 16 25.4
002EF75A 2019-04-15 13:12:22 22.5 17 25.5
002EF75A 2019-04-15 12:37:04 22.5 16 25.5
002EF75A 2019-04-15 12:01:46 22.3 16 25.4
002EF75A 2019-04-15 11:26:28 22.2 16 25.4
002EF75A 2019-04-15 10:51:09 22.2 17 25.7
002EF75A 2019-04-15 10:15:50 22 17 25.6
002EF75A 2019-04-15 09:40:32 22 17 25.6
002EF75A 2019-04-15 09:05:13 22 17 25.7
002EF75A 2019-04-15 08:29:54 21.9 17 25.7
002EF75A 2019-04-15 07:54:37 21.8 17 25.6
002EF75A 2019-04-15 07:19:19 21.8 17 25.6
002EF75A 2019-04-15 06:44:01 21.8 17 25.6
002EF75A 2019-04-15 06:08:43 21.8 17 25.6
002EF75A 2019-04-15 05:33:26 21.8 17 25.5
002EF75A 2019-04-15 04:58:08 21.8 17 25
002EF75A 2019-04-15 04:22:51 21.8 18 24.8
002EF75A 2019-04-15 03:47:33 21.8 18 24.7
002EF75A 2019-04-15 03:12:15 21.8 18 24.7
002EF75A 2019-04-15 02:36:56 21.8 18 24.1
002EF75A 2019-04-15 02:01:39 21.8 18 24.1
002EF75A 2019-04-15 01:26:20 21.8 18 23.9
002EF75A 2019-04-15 00:51:01 21.8 18 23.8
002EF75A 2019-04-15 00:15:42 21.8 18 23.6
002EF75A 2019-04-14 23:40:22 21.8 18 23.6
002EF75A 2019-04-14 23:05:02 21.8 18 23.6
002EF75A 2019-04-14 22:29:43 21.8 18 23.4
002EF75A 2019-04-14 21:54:26 21.9 18 23.4
002EF75A 2019-04-14 21:19:08 22 18 23.6
002EF75A 2019-04-14 20:43:50 22 18 23.6
002EF75A 2019-04-14 20:08:33 22 18 23.9
002EF75A 2019-04-14 19:33:15 22 18 24
002EF75A 2019-04-14 18:57:56 22 18 24.1
002EF75A 2019-04-14 18:22:38 22 18 24
002EF75A 2019-04-14 17:47:19 22 18 23.9
002EF75A 2019-04-14 17:12:01 21.8 18 24
002EF75A 2019-04-14 16:36:43 21.8 18 24.1
002EF75A 2019-04-14 16:01:24 21.8 18 23.9
002EF75A 2019-04-14 15:26:06 21.8 18 24.1
002EF75A 2019-04-14 14:50:47 21.9 18 24.1
002EF75A 2019-04-14 14:15:27 21.8 18 24.3
002EF75A 2019-04-14 13:40:09 21.9 19 24.3
002EF75A 2019-04-14 13:04:50 21.9 19 24.8
002EF75A 2019-04-14 12:29:31 21.9 19 24.8
002EF75A 2019-04-14 11:54:12 21.8 19 24.9
002EF75A 2019-04-14 11:18:53 21.9 19 24.9
002EF75A 2019-04-14 10:43:34 21.8 19 25
002EF75A 2019-04-14 10:08:15 21.8 19 25
002EF75A 2019-04-14 09:32:55 21.8 19 25
002EF75A 2019-04-14 08:57:35 21.8 18 25
002EF75A 2019-04-14 08:22:16 21.8 18 25
002EF75A 2019-04-14 07:46:57 21.8 18 25
002EF75A 2019-04-14 07:11:37 21.8 18 25.1
002EF75A 2019-04-14 06:36:18 21.8 18 24.9
002EF75A 2019-04-14 06:00:59 21.8 18 24.9
002EF75A 2019-04-14 05:25:39 21.8 18 24.4
002EF75A 2019-04-14 04:50:18 21.8 18 24.5
002EF75A 2019-04-14 04:14:59 21.8 18 24.5
002EF75A 2019-04-14 03:39:39 21.9 18 24.4
002EF75A 2019-04-14 03:04:21 21.9 18 24.6
002EF75A 2019-04-14 02:29:01 22 18 24.5
002EF75A 2019-04-14 01:53:41 22 18 24.5
002EF75A 2019-04-14 01:18:22 22 18 24.5
002EF75A 2019-04-14 00:43:03 22 18 24.4
002EF75A 2019-04-14 00:07:43 22 18 24.4
002EF75A 2019-04-13 23:32:24 22 18 24.2
002EF75A 2019-04-13 22:57:05 22 18 24.1
002EF75A 2019-04-13 22:21:46 22 18 23.4
002EF75A 2019-04-13 21:46:28 22 18 23.6
002EF75A 2019-04-13 21:11:08 22 18 23.5
002EF75A 2019-04-13 20:35:48 22.2 18 23.4
002EF75A 2019-04-13 20:00:28 22.2 18 23.5
002EF75A 2019-04-13 19:25:10 22.2 18 23.5
002EF75A 2019-04-13 18:49:51 22.2 18 23.7
002EF75A 2019-04-13 18:14:31 22.2 18 23.3
002EF75A 2019-04-13 17:39:13 22.2 18 23.3
002EF75A 2019-04-13 17:03:53 22.2 18 23.2
002EF75A 2019-04-13 16:28:36 22.2 18 23.2
002EF75A 2019-04-13 15:53:18 22.2 18 23.3
002EF75A 2019-04-13 15:18:01 22.2 18 23.4
002EF75A 2019-04-13 14:42:42 22.2 18 23.4
002EF75A 2019-04-13 14:07:24 22.2 18 23.8
002EF75A 2019-04-13 13:32:05 22.3 18 23.9
002EF75A 2019-04-13 12:56:47 22.4 18 23.9
002EF75A 2019-04-13 12:21:29 22.4 18 24.1
002EF75A 2019-04-13 11:46:11 22.4 18 24.1
002EF75A 2019-04-13 11:10:53 22.3 18 24.1
002EF75A 2019-04-13 10:35:36 22.3 18 24.1
002EF75A 2019-04-13 10:00:18 22.2 18 24.1
002EF75A 2019-04-13 09:25:00 22.2 18 24.2
002EF75A 2019-04-13 08:49:41 22.3 18 24.3
002EF75A 2019-04-13 08:14:23 22.2 18 24.4
002EF75A 2019-04-13 07:39:05 22.3 18 24.7
002EF75A 2019-04-13 07:03:47 22.2 18 24.6
002EF75A 2019-04-13 06:28:29 22.2 18 24.6
002EF75A 2019-04-13 05:53:09 22.2 18 24.6
002EF75A 2019-04-13 05:17:50 22.2 18 25
002EF75A 2019-04-13 04:42:31 22.2 18 25.4
002EF75A 2019-04-13 04:07:12 22.2 18 25.4
002EF75A 2019-04-13 03:31:52 22.5 18 25.4
002EF75A 2019-04-13 02:56:32 22.5 18 25.4
002EF75A 2019-04-13 02:21:12 22.5 18 25.5
002EF75A 2019-04-13 01:45:51 22.5 18 25.6
002EF75A 2019-04-13 01:10:30 22.5 18 25.6
002EF75A 2019-04-13 00:35:10 22.5 19 25.6
002EF75A 2019-04-12 23:59:51 22.5 19 25.8
002EF75A 2019-04-12 23:24:32 22.6 19 25.3
002EF75A 2019-04-12 22:49:12 22.7 19 25.3
002EF75A 2019-04-12 22:13:52 22.7 19 25.4
002EF75A 2019-04-12 21:38:32 22.7 19 25.3
002EF75A 2019-04-12 21:03:10 22.7 19 25.4
002EF75A 2019-04-12 20:27:51 22.7 19 25.4
002EF75A 2019-04-12 19:52:30 22.8 19 25.5
002EF75A 2019-04-12 19:17:11 22.9 19 25.7
002EF75A 2019-04-12 18:41:51 22.9 18 25.7
002EF75A 2019-04-12 18:06:31 23.1 18 26
002EF75A 2019-04-12 17:31:11 23.1 18 26.1
002EF75A 2019-04-12 16:55:51 23.1 18 25.9
002EF75A 2019-04-12 16:20:31 23.1 19 26.4
002EF75A 2019-04-12 15:45:10 23 19 26.7
002EF75A 2019-04-12 15:09:49 22.8 19 27.5
002EF75A 2019-04-12 14:34:29 22.5 19 26.1
002EF75A 2019-04-12 13:59:08 22.1 21 20.7
002EF75A 2019-04-12 13:23:47 21.4 23 13.2